Home > Weather > New Bedford > Past weeks

Flag for USA Weather for the Past 2 Weeks in New Bedford, Massachusetts, USA

Now
35 °F

Clear.


Feels Like: 35 °F
Forecast: 38 / 54 °F
Wind: No wind

Location: New Bedford Regional Airport

Current Time: May 1, 2016 at 4:24:19 AM

Latest Report: May 1, 2016 at 2:53 AM


Visibility: 10 mi

Pressure: 30.23 "Hg

Humidity: 96%

Dew Point: 34 °F

Location of New BedfordLocation

Historic Weather in New Bedford — Graph

°F

New Bedford Temperature Yesterday

Maximum temperature yesterday: 60 °F (at 11:53 AM)
Minimum temperature yesterday: 35 °F (at 5:53 AM)
Average temperature yesterday: 48 °F

High & Low Weather Summary for the Past Weeks

 TemperatureHumidityPressure
High75 °F (Apr 22, 11:53 AM)100% (Apr 23, 7:00 AM)30.44 "Hg (Apr 23, 7:00 AM)
Low33 °F (Apr 27, 5:53 AM)19% (Apr 24, 1:53 PM)29.71 "Hg (Apr 26, 11:53 AM)
Average49 °F64%30.06 "Hg
* Reported Apr 16 2:53 AM — May 1 2:53 AM, New Bedford, Weather by CustomWeather, © 2016

Note: Actual official high and low records may vary slightly from our data, if they occured in-between our weather recording intervals... More about our weather records

Advertising

New Bedford Weather History for the Previous 24 Hours

Scroll right to see more
 ConditionsComfort  
Time TempWeatherWind HumidityBarometerVisibility
2:53 AM
Sun, May 1
35 °FClear.No wind96%30.23 "Hg10 mi
1:53 AM37 °FClear.No wind93%30.23 "Hg10 mi
12:53 AM38 °FClear.No wind90%30.25 "Hg10 mi
11:53 PM
Sat, Apr 30
40 °FClear.No wind83%30.26 "Hg10 mi
10:53 PM42 °FClear.3 mph76%30.25 "Hg10 mi
9:53 PM43 °FClear.3 mph74%30.26 "Hg10 mi
8:53 PM44 °FClear.3 mph71%30.27 "Hg10 mi
7:53 PM46 °FSunny.7 mph66%30.26 "Hg10 mi
6:53 PM50 °FSunny.10 mph46%30.23 "Hg10 mi
5:53 PM52 °FSunny.15 mph35%30.23 "Hg10 mi
4:53 PM53 °FSunny.17 mph37%30.22 "Hg10 mi
3:53 PM56 °FSunny.15 mph39%30.21 "Hg10 mi
2:53 PM57 °FSunny.14 mph46%30.19 "Hg10 mi
1:53 PM60 °FSunny.7 mph26%30.17 "Hg10 mi
12:53 PM59 °FSunny.10 mph29%30.17 "Hg10 mi
11:53 AM60 °FSunny.6 mph33%30.18 "Hg10 mi
10:53 AM57 °FSunny.9 mph36%30.19 "Hg10 mi
9:53 AM55 °FPassing clouds.9 mph42%30.21 "Hg10 mi
8:53 AM50 °FOvercast.No wind52%30.23 "Hg10 mi
7:53 AM48 °FSunny.No wind66%30.22 "Hg10 mi
6:53 AM39 °FSunny.No wind93%30.20 "Hg10 mi
5:53 AM35 °FClear.5 mph96%30.17 "Hg10 mi
4:53 AM37 °FPassing clouds.No wind93%30.16 "Hg10 mi
Weather by CustomWeather, © 2016

See weather overviewHow to use our weather pages